Weather in Plesetsk

Russia / Arkhangel'skaya Oblast'     62°42′33″N   40°17′06″E
temp.,
°C
wind,
m/s
gust,
m/s
humid.,
%
clouds,
%
prec.,
mm/h
press.,
hPa
HPBL,
m
12 may, wed
wed1200:00+14ssw41376100 0.0 1024364
03:00+12ssw31184100 0.0 1025266
06:00+14ssw3108097 0.0 1025271
09:00+20sw475629 0.0 1025632
12:00+23sw463886 0.0 10251416
15:00+24sw45345 0.0 10241643
18:00+24ssw35405 0.0 1022505
21:00+17s24620 0.0 102256
13 may, thu
thu1300:00+14s22680 0.0 102339
03:00+13s24770 0.0 102265
06:00+15ssw26691 0.0 1022178
09:00+21ssw36510 0.0 1021606
12:00+25ssw36335 0.0 10201808
15:00+25ssw353999 0.0 10181888
18:00+20s255597 0.0 1017199
21:00+16s22738 0.1 101623
14 may, fri
fri1400:00+14ese22745 0.0 101615
03:00+13se24839 0.0 101476
06:00+15s3784100 0.1 1013327
09:00+15sw368397 0.6 1013442
12:00+17ssw577244 1.2 10131044
15:00+21wsw474633 1.3 10132023
18:00+20ssw4643100 0.0 10131890
21:00+14ssw276593 0.0 1014142
15 may, sat
sat1500:00+12ssw2374100 0.0 101450
03:00+10ssw23805 0.0 101458
06:00+13s137097 0.0 1014121
09:00+18sse24495 0.0 10121102
12:00+21s3441100 0.0 10111872
15:00+20s3453100 0.0 1010759
18:00+17se3675100 1.1 1008243
21:00+15e31093100 3.5 1006351
16 may, sun
sun1600:00+14ese4996100 6.3 1003331
03:00+14ssw3996100 12.2 1002438
06:00+14ssw41097100 3.8 1002470
09:00+14sw3798100 8.1 1003365
12:00+15ssw3691100 1.2 1004623
15:00+15sw3793100 2.6 1005513
18:00+15wsw2594100 1.5 1006411
21:00+11nnw3690100 0.3 1009288